Simultaneous Nadir Overpasses (SNOs) Predictions

Prediction of SNOs between LANDSAT-8 and METOP-B Satellite Orbit:

Table of predicted SNOs for the next 14.0 days since TLE Epoch: 3/10/2017
Index Date (LANDSAT-8) Time (LANDSAT-8) Lat,Lon (LANDSAT-8) SZA (LANDSAT-8 ) Date (METOP-B) Time (METOP-B) Lat,Lon (METOP-B) SZA (METOP-B ) Distance(km) Time Diff (sec)
1 03/12/2017 17:30:41 -81.09, 136.31 94.16 03/12/2017 17:30:27 -81.09, 136.16 94.18 2.51 14
2 03/12/2017 18:20:06 81.12, -55.60 85.89 03/12/2017 18:21:06 81.12, -55.76 85.90 2.76 60
3 03/15/2017 13:04:54 -81.10,-157.06 95.22 03/15/2017 13:04:48 -81.11,-156.92 95.21 2.49 6
4 03/15/2017 13:54:19 81.13, 11.00 84.83 03/15/2017 13:55:27 81.13, 11.13 84.87 2.14 68
5 03/18/2017 07:49:41 81.09, 101.56 83.68 03/18/2017 07:48:31 81.09, 101.62 83.66 1.03 70
6
